• Join FlightAware (Why Join?)
  • Login
  • US Flag GB Flag 
10:31 EST


 

Airport Tracker/Info


-or-


 

Live Flight TrackerFlight Track Log ✈ SWA720 ✈ 12-Apr-2013 ✈ KSJC - KLAX

Flight Track Log - Related Links

Times and Time Zones

All times are in EDT time to prevent confusion due to time zone crossing. See the SWA720 flight status page for this flight to view local times or setup timezone preferences in your user account.

Time Position Orientation Groundspeed Altitude Reporting Facility
EDT Latitude Longitude Course Direction KTS MPH feet Rate Location/Type
11:18 37.4167 -121.9833 141° Southeast 207 238 2,600  Level Northern Cal TRACON
11:19 37.4333 -121.9333 67° East 236 272 5,000 1,884 Climbing Northern Cal TRACON
11:20 37.4000 -121.8667 122° Southeast 254 292 6,400 2,083 Climbing Northern Cal TRACON
11:21 37.3333 -121.8000 142° Southeast 283 326 9,200 2,621 Climbing Northern Cal TRACON
11:22 37.3231 -121.7756 118° Southeast 276 318 10,200 1,636 Climbing Oakland Center
11:23 37.2522 -121.6956 138° Southeast 335 386 11,600 2,066 Climbing Oakland Center
11:24 36.8601 -121.3854 141° Southeast  Level Estimated
11:24 37.1714 -121.6094 140° Southeast 377 434 14,400  Level Oakland Center
11:25 37.0864 -121.5128 138° Southeast 394 453 16,900 2,410 Climbing Oakland Center
11:26 36.9808 -121.3994 139° Southeast 423 487 19,300 2,195 Climbing Oakland Center
11:27 36.8903 -121.2986 138° Southeast 435 501 21,400 2,195 Climbing Oakland Center
11:28 36.7956 -121.1956 139° Southeast 435 501 23,800 2,016 Climbing Oakland Center
11:29 36.7011 -121.0928 139° Southeast 447 514 25,500 1,623 Climbing Oakland Center
11:30 36.6031 -120.9903 140° Southeast 457 526 27,100 1,623 Climbing Oakland Center
11:31 36.5047 -120.8836 139° Southeast 466 536 28,800 1,415 Climbing Oakland Center
11:32 36.4061 -120.7761 139° Southeast 471 542 30,000 1,239 Climbing Oakland Center
11:34 36.2178 -120.5353 134° Southeast 483 556 32,600 946 Climbing Los Angeles Center
11:35 36.1861 -120.3831 104° East 460 529 32,900 148 Climbing Los Angeles Center
11:36 36.1519 -120.2244 105° East 465 535 32,900  Level Oakland Center
11:37 36.0367 -120.1275 146° Southeast 508 585 32,900  Level Oakland Center
11:38 35.8997 -120.0758 163° South 515 593 32,900  Level Oakland Center
11:39 35.7592 -120.0222 163° South 523 602 32,900  Level Oakland Center
11:41 35.4575 -119.8981 161° South 518 596 32,900 -189 Level Los Angeles Center
11:42 35.3422 -119.8119 149° Southeast 494 568 32,300 -484 Descending Los Angeles Center
11:43 35.2714 -119.6719 122° Southeast 483 556 31,900 -194 Descending Los Angeles Center
11:44 35.1661 -119.5625 140° Southeast 497 572 31,900 -435 Level Los Angeles Center
11:45 35.0267 -119.4453 145° Southeast 505 581 31,000 -1,645 Descending Los Angeles Center
11:46 34.9133 -119.3461 144° Southeast 503 579 28,500 -2,419 Descending Los Angeles Center
11:47 34.8006 -119.2536 146° Southeast 492 566 26,000 -2,323 Descending Los Angeles Center
11:48 34.6947 -119.1642 145° Southeast 468 539 23,700 -2,323 Descending Los Angeles Center
11:50 34.5803 -119.0703 146° Southeast 446 513 21,200 -2,274 Descending Los Angeles Center
11:51 34.4847 -118.9897 145° Southeast 419 482 19,000 -2,177 Descending Los Angeles Center
11:52 34.3950 -118.9131 145° Southeast 395 455 16,700 -2,081 Descending Los Angeles Center
11:53 34.2997 -118.8600 155° Southeast 379 436 14,700 -2,032 Descending Los Angeles Center
11:54 34.2014 -118.8253 164° South 369 425 12,500 -1,694 Descending Los Angeles Center
11:55 34.1083 -118.7900 163° South 348 400 11,200 -1,210 Descending Los Angeles Center
11:56 34.0344 -118.7236 143° Southeast 291 335 10,000 -629 Descending Los Angeles Center
11:57 34.0267 -118.6311 96° East 246 283 9,900 -484 Descending Los Angeles Center
11:58 34.0203 -118.5658 97° East 197 227 9,000 -1,113 Descending Los Angeles Center
11:59 34.0136 -118.4958 97° East 194 223 7,600 -1,024 Descending Los Angeles Center
12:00 34.0108 -118.4381 93° East 194 223 6,900 -439 Descending Los Angeles Center
12:01 34.0192 -118.3717 81° East 197 227 6,700 -581 Descending Los Angeles Center
12:02 34.0233 -118.3186 85° East 198 228 5,700 -1,248 Descending Los Angeles Center
12:03 34.0303 -118.2269 85° East 196 226 4,100 -1,392 Descending Los Angeles Center
12:04 34.0233 -118.1675 98° East 195 224 2,800 -726 Descending Los Angeles Center
12:05 33.9811 -118.1844 198° South 197 227 2,600 -145 Descending Los Angeles Center
12:06 33.9683 -118.2444 256° West 191 220 2,500 -387 Descending Los Angeles Center
12:07 33.9636 -118.2958 264° West 169 194 1,800 -774 Descending Los Angeles Center
12:08 33.9578 -118.3511 263° West 150 173 900 -774 Descending Los Angeles Center
12:09 33.9531 -118.3983 263° West 145 167 200 -677 Descending Los Angeles Center
12:11 33.9333 -118.4000 251° West  Level FlightAware Approximate
12:18 33.9425 -118.4081 251° West  Level Estimated